Location: Davayat
(45.9471°N, 3.1105°E)
Time: 18:17:44
(UTC+00:00)

Cosmos 1943 - Pass Details

Date: 01 December 2020
Orbit: 832 x 851 km, 71.0° (Epoch: 23 January)

Event Time Altitude Azimuth Distance (km) Brightness Sun altitude
Rises 17:49:29 0° 194° (SSW) 3,377 6.7 -17.7°
Reaches altitude 10° 17:51:55 10° 191° (S) 2,450 5.9 -18.1°
Maximum altitude 17:57:28 64° 111° (ESE) 936 3.2 -19.1°
Enters shadow 18:00:29 28° 39° (NE) 1,554 4.1 -19.6°
